FW6831 Weather Reports


Display with metric or nautical units.
time (UTC)temp
F
wind
direction
speed
MPH
gust
MPH
rain 1hr
in
rain 24hr
in
rain mn
in
humidity
%
barometer
mb
20260901164603 53 314 0.0 1.0 0.00 0.00 0.00 95 1024.5
20260901164043 53 315 1.0 1.0 0.00 0.00 0.00 95 1024.6
20260901163543 53 316 0.0 1.0 0.00 0.00 0.00 95 1024.8
20260901163056 53 317 0.0 1.0 0.00 0.00 0.00 95 1024.8
20260901162547 53 316 0.0 1.0 0.00 0.00 0.00 94 1025.0
20260901162043 53 316 1.0 1.0 0.00 0.00 0.00 94 1024.9
20260901161554 53 316 0.0 1.0 0.00 0.00 0.00 94 1024.9
20260901161043 54 330 0.0 0.0 0.00 0.00 0.00 94 1025.0
20260901160544 54 0 0.0 0.0 0.00 0.00 0.00 94 1025.1
20260901160057 54 0 0.0 0.0 0.00 0.00 0.00 94 1025.0
20260901155542 54 0 0.0 0.0 0.00 0.00 0.00 94 1025.0
20260901155043 55 0 0.0 0.0 0.00 0.00 0.00 93 1025.0
20260901154600 55 0 0.0 0.0 0.00 0.00 0.00 93 1025.1
20260901154043 55 0 0.0 1.0 0.00 0.00 0.00 94 1025.2
20260901153547 55 0 0.0 1.0 0.00 0.00 0.00 94 1025.2
20260901153103 55 0 0.0 1.0 0.00 0.00 0.00 94 1025.1
20260901152544 55 0 0.0 0.0 0.00 0.00 0.00 94 1025.1
20260901152043 55 0 0.0 0.0 0.00 0.00 0.00 94 1025.1
20260901151602 55 0 0.0 0.0 0.00 0.00 0.00 93 1025.1
20260901151044 55 0 0.0 0.0 0.00 0.00 0.00 93 1025.1
20260901150544 54 0 0.0 0.0 0.00 0.00 0.00 92 1025.1
20260901150109 55 0 0.0 1.0 0.00 0.00 0.00 92 1025.0
20260901145544 55 0 0.0 1.0 0.00 0.00 0.00 92 1025.0
20260901145044 56 0 0.0 2.0 0.00 0.00 0.00 92 1025.2
20260901144604 56 302 1.0 2.0 0.00 0.00 0.00 93 1025.1
20260901144043 56 272 1.0 2.0 0.00 0.00 0.00 92 1025.1
20260901143543 57 326 1.0 2.0 0.00 0.00 0.00 93 1025.2
20260901143115 57 318 1.0 2.0 0.00 0.00 0.00 93 1025.3
20260901142544 57 324 0.0 2.0 0.00 0.00 0.00 93 1025.3
20260901142044 57 305 0.0 2.0 0.00 0.00 0.00 93 1025.3
20260901141604 57 288 0.0 2.0 0.00 0.00 0.00 93 1025.3
20260901141043 57 313 0.0 1.0 0.00 0.00 0.00 94 1025.4
20260901140544 57 0 0.0 2.0 0.00 0.00 0.00 94 1025.3
20260901140059 56 326 0.0 2.0 0.00 0.00 0.00 94 1025.4
20260901135548 56 0 0.0 1.0 0.00 0.00 0.00 94 1025.5
20260901135044 56 0 0.0 1.0 0.00 0.00 0.00 94 1025.6
20260901134620 56 0 0.0 1.0 0.00 0.00 0.00 94 1025.6
20260901134045 56 312 0.0 2.0 0.00 0.00 0.00 95 1025.6
20260901133546 56 326 0.0 2.0 0.00 0.00 0.00 95 1025.7
20260901133103 55 248 0.0 2.0 0.00 0.00 0.00 95 1025.6
20260901132544 55 300 0.0 2.0 0.00 0.00 0.00 94 1025.5
20260901132044 55 326 1.0 2.0 0.00 0.00 0.00 95 1025.6
20260901131609 55 300 0.0 2.0 0.00 0.00 0.00 94 1025.7
20260901131044 55 315 0.0 2.0 0.00 0.00 0.00 94 1025.9
20260901130544 55 0 0.0 2.0 0.00 0.00 0.00 94 1025.9
20260901130105 55 311 1.0 2.0 0.00 0.00 0.00 94 1026.0
20260901125543 55 309 1.0 1.0 0.00 0.00 0.00 94 1026.1
20260901125045 55 307 1.0 1.0 0.00 0.00 0.00 93 1026.1
20260901124601 56 307 1.0 1.0 0.00 0.00 0.00 93 1026.2
20260901124049 56 311 0.0 1.0 0.00 0.00 0.00 93 1026.2
20260901123545 56 314 0.0 1.0 0.00 0.00 0.00 93 1026.2
20260901123102 56 314 0.0 1.0 0.00 0.00 0.00 93 1026.3
20260901122544 56 0 0.0 0.0 0.00 0.00 0.00 93 1026.3
20260901122047 56 0 0.0 0.0 0.00 0.00 0.00 93 1026.3
20260901121607 56 0 0.0 0.0 0.00 0.00 0.00 93 1026.3
20260901121043 56 0 0.0 1.0 0.00 0.00 0.00 92 1026.3
20260901120543 56 287 0.0 1.0 0.00 0.00 0.00 91 1026.3
20260901120059 57 268 0.0 0.0 0.00 0.00 0.00 91 1026.3
20260901115544 57 0 0.0 0.0 0.00 0.00 0.00 91 1026.2
20260901115042 57 0 0.0 0.0 0.00 0.00 0.00 91 1026.1
20260901114604 57 0 0.0 0.0 0.00 0.00 0.00 90 1026.2
20260901114044 57 0 0.0 1.0 0.00 0.00 0.00 90 1026.3
20260901113543 58 0 0.0 1.0 0.00 0.00 0.00 89 1026.2
20260901113107 58 323 0.0 1.0 0.00 0.00 0.00 90 1026.2
20260901112543 58 0 0.0 1.0 0.00 0.00 0.00 90 1026.2
20260901112045 58 318 0.0 1.0 0.00 0.00 0.00 89 1026.3
20260901111604 59 292 0.0 2.0 0.00 0.00 0.00 90 1026.2
20260901111043 59 281 0.0 2.0 0.00 0.00 0.00 88 1026.2
20260901110543 59 285 0.0 2.0 0.00 0.00 0.00 88 1026.1
20260901110059 60 302 0.0 3.0 0.00 0.00 0.00 88 1026.1
20260901105544 60 311 0.0 4.0 0.00 0.00 0.00 89 1026.0
20260901105044 60 327 0.0 4.0 0.00 0.00 0.00 89 1026.1
20260901104557 59 309 0.0 4.0 0.00 0.00 0.00 90 1026.0
20260901104044 59 0 0.0 1.0 0.00 0.00 0.00 88 1026.0
20260901103543 59 0 0.0 3.0 0.00 0.00 0.00 88 1026.1
20260901103103 60 303 0.0 3.0 0.00 0.00 0.00 88 1026.1
20260901102543 60 0 0.0 3.0 0.00 0.00 0.00 87 1026.1
20260901102045 60 317 0.0 2.0 0.00 0.00 0.00 87 1026.1
20260901101601 60 300 0.0 2.0 0.00 0.00 0.00 86 1026.1
20260901101043 60 55 0.0 2.0 0.00 0.00 0.00 87 1026.1
20260901100543 60 0 0.0 2.0 0.00 0.00 0.00 86 1026.1
20260901095543 60 37 0.0 2.0 0.00 0.00 0.00 87 1026.1
20260901095043 60 321 0.0 2.0 0.00 0.00 0.00 88 1026.0
20260901094556 60 0 0.0 4.0 0.00 0.00 0.00 86 1026.1
20260901094047 60 0 0.0 4.0 0.00 0.00 0.00 86 1026.3
20260901093543 60 0 0.0 1.0 0.00 0.00 0.00 85 1026.1
20260901093054 60 0 0.0 2.0 0.00 0.00 0.00 85 1026.1
20260901092543 60 242 0.0 2.0 0.00 0.00 0.00 84 1026.2
20260901092045 61 0 0.0 2.0 0.00 0.00 0.00 85 1026.1
20260901091601 61 0 0.0 1.0 0.00 0.00 0.00 84 1026.1
20260901091043 61 0 0.0 2.0 0.00 0.00 0.00 83 1026.1
20260901090543 62 0 0.0 2.0 0.00 0.00 0.00 82 1026.0
20260901090055 62 0 0.0 4.0 0.00 0.00 0.00 82 1026.0
20260901085543 62 0 0.0 4.0 0.00 0.00 0.00 82 1025.9
20260901085043 62 0 0.0 2.0 0.00 0.00 0.00 82 1025.9
20260901084559 62 0 0.0 0.0 0.00 0.00 0.00 81 1025.8
20260901084044 62 0 0.0 0.0 0.00 0.00 0.00 80 1025.8
20260901083546 63 0 0.0 1.0 0.00 0.00 0.00 80 1025.7
20260901083058 63 0 0.0 1.0 0.00 0.00 0.00 79 1025.7
20260901082545 63 0 0.0 1.0 0.00 0.00 0.00 79 1025.7
20260901082043 63 0 0.0 0.0 0.00 0.00 0.00 78 1025.6
20260901081559 64 0 0.0 3.0 0.00 0.00 0.00 78 1025.5
20260901081043 64 0 0.0 3.0 0.00 0.00 0.00 77 1025.5
20260901080543 64 0 0.0 4.0 0.00 0.00 0.00 77 1025.4
20260901080107 64 0 0.0 4.0 0.00 0.00 0.00 77 1025.3
20260901075543 64 0 0.0 4.0 0.00 0.00 0.00 76 1025.3
20260901075043 65 0 0.0 3.0 0.00 0.00 0.00 76 1025.3
20260901074609 65 0 0.0 3.0 0.00 0.00 0.00 75 1025.2
20260901074043 65 0 0.0 0.0 0.00 0.00 0.00 74 1025.3
20260901073543 66 0 0.0 0.0 0.00 0.00 0.00 74 1025.2
20260901073052 66 0 0.0 2.0 0.00 0.00 0.00 73 1025.3
20260901072545 66 0 0.0 2.0 0.00 0.00 0.00 73 1025.1
20260901072043 67 0 0.0 3.0 0.00 0.00 0.00 72 1025.1
20260901071601 67 0 0.0 3.0 0.00 0.00 0.00 72 1025.1
20260901071042 67 74 0.0 4.0 0.00 0.00 0.00 71 1025.1
20260901070546 67 40 1.0 4.0 0.00 0.00 0.00 70 1025.1
20260901070057 68 92 2.0 4.0 0.00 0.00 0.00 70 1025.1
20260901065544 68 109 2.0 5.0 0.00 0.00 0.00 70 1025.1
20260901065044 68 105 2.0 5.0 0.00 0.00 0.00 70 1025.1
20260901064559 68 29 1.0 6.0 0.00 0.00 0.00 69 1025.0
20260901064044 69 101 1.0 6.0 0.00 0.00 0.00 69 1025.0
20260901063543 69 75 1.0 6.0 0.00 0.00 0.00 69 1025.0
20260901063051 69 46 2.0 5.0 0.00 0.00 0.00 69 1024.8
20260901062548 69 139 2.0 5.0 0.00 0.00 0.00 69 1024.9
20260901062044 69 352 1.0 5.0 0.00 0.00 0.00 69 1025.0
20260901061607 69 0 1.0 5.0 0.00 0.00 0.00 68 1024.9
20260901061047 69 28 1.0 6.0 0.00 0.00 0.00 69 1024.9
20260901060545 70 68 1.0 6.0 0.00 0.00 0.00 69 1025.0
20260901055543 69 131 0.0 6.0 0.00 0.00 0.00 70 1025.0
20260901055045 69 63 1.0 6.0 0.00 0.00 0.00 70 1025.1
20260901054555 70 20 2.0 5.0 0.00 0.00 0.00 70 1025.2
20260901054044 70 0 3.0 5.0 0.00 0.00 0.00 69 1025.1
20260901053544 70 165 2.0 8.0 0.00 0.00 0.00 70 1025.1
20260901053054 70 0 2.0 8.0 0.00 0.00 0.00 70 1025.1
20260901052542 70 150 3.0 8.0 0.00 0.00 0.00 69 1025.2
20260901052042 70 0 1.0 4.0 0.00 0.00 0.00 71 1025.2
20260901051559 70 75 1.0 4.0 0.00 0.00 0.00 72 1025.2
20260901051042 69 67 0.0 5.0 0.00 0.00 0.00 72 1025.3
20260901050544 69 92 1.0 5.0 0.00 0.00 0.00 72 1025.3
20260901050059 69 104 3.0 6.0 0.00 0.00 0.00 72 1025.5
20260901045542 69 105 2.0 7.0 0.00 0.00 0.00 72 1025.5
20260901045044 69 150 1.0 7.0 0.00 0.00 0.00 72 1025.5
20260901044558 69 149 1.0 6.0 0.00 0.00 0.00 71 1025.5
20260901044045 69 140 2.0 7.0 0.00 0.00 0.00 71 1025.5
20260901043543 70 144 4.0 7.0 0.00 0.00 0.00 70 1025.6
20260901043058 70 87 1.0 5.0 0.00 0.00 0.00 70 1025.7
20260901042542 71 62 1.0 3.0 0.00 0.00 0.00 69 1025.7
20260901042044 71 49 1.0 3.0 0.00 0.00 0.00 68 1025.8
20260901041600 72 32 0.0 5.0 0.00 0.00 0.00 67 1025.8
20260901041043 72 343 1.0 5.0 0.00 0.00 0.00 66 1025.9
20260901040543 73 176 2.0 5.0 0.00 0.00 0.00 65 1025.9
20260901040114 73 0 1.0 4.0 0.00 0.00 0.00 67 1026.0
20260901035543 73 237 1.0 4.0 0.00 0.00 0.00 66 1026.0
20260901035044 73 0 0.0 3.0 0.00 0.00 0.00 68 1026.1
20260901034557 73 322 1.0 3.0 0.00 0.00 0.00 67 1026.1
20260901034044 73 0 0.0 5.0 0.00 0.00 0.00 67 1026.2
20260901033541 73 316 0.0 5.0 0.00 0.00 0.00 69 1026.2
20260901033056 71 307 1.0 5.0 0.00 0.00 0.00 70 1026.3
20260901032544 71 313 2.0 5.0 0.00 0.00 0.00 69 1026.4
20260901032043 71 93 1.0 5.0 0.00 0.00 0.00 69 1026.4
20260901031552 71 48 0.0 2.0 0.00 0.00 0.00 68 1026.6
20260901031043 71 0 0.0 5.0 0.00 0.00 0.00 70 1026.6
20260901030543 70 114 2.0 5.0 0.00 0.00 0.00 70 1026.7
20260901030058 71 54 0.0 3.0 0.00 0.00 0.00 70 1026.7
20260901025543 71 0 0.0 3.0 0.00 0.00 0.00 71 1026.7
20260901025043 70 67 1.0 3.0 0.00 0.00 0.00 70 1026.9
20260901024557 70 30 1.0 3.0 0.00 0.00 0.00 72 1027.1
20260901024043 70 0 1.0 2.0 0.00 0.00 0.00 73 1027.2
20260901023543 70 103 0.0 2.0 0.00 0.00 0.00 74 1027.2
20260901023054 69 0 0.0 3.0 0.00 0.00 0.00 75 1027.4
20260901022543 69 300 1.0 3.0 0.00 0.00 0.00 76 1027.5
20260901022044 69 0 0.0 1.0 0.00 0.00 0.00 76 1027.7
20260901021554 69 285 0.0 5.0 0.00 0.00 0.00 76 1027.8
20260901021044 69 0 0.0 5.0 0.00 0.00 0.00 76 1028.0
20260901020544 69 0 2.0 5.0 0.00 0.00 0.00 76 1028.0
20260901015547 70 47 1.0 7.0 0.00 0.00 0.00 75 1028.1
20260901015043 71 0 0.0 1.0 0.00 0.00 0.00 76 1028.2
20260901014601 70 0 0.0 2.0 0.00 0.00 0.00 77 1028.4
20260901014044 69 0 0.0 3.0 0.00 0.00 0.00 79 1028.4
20260901013543 68 0 0.0 3.0 0.00 0.00 0.00 80 1028.6
20260901013108 67 0 0.0 3.0 0.00 0.00 0.00 81 1028.6
20260901012543 67 0 1.0 3.0 0.00 0.00 0.00 81 1028.7
20260901012042 67 268 1.0 4.0 0.00 0.00 0.00 81 1028.9
20260901011551 67 0 0.0 4.0 0.00 0.00 0.00 81 1029.0
20260901011041 67 241 0.0 3.0 0.00 0.00 0.00 81 1029.1
20260901010544 68 171 0.0 2.0 0.00 0.00 0.00 81 1029.3
20260901010108 67 0 0.0 1.0 0.00 0.00 0.00 84 1029.3
20260901005546 67 0 0.0 1.0 0.00 0.00 0.00 85 1029.4
20260901005044 66 0 0.0 1.0 0.00 0.00 0.00 84 1029.5
20260901004601 66 0 0.0 1.0 0.00 0.00 0.00 85 1029.5
20260901004044 65 0 0.0 1.0 0.00 0.00 0.00 87 1029.6
20260901003544 65 244 0.0 1.0 0.00 0.00 0.00 88 1029.8
20260901003054 64 186 0.0 1.0 0.00 0.00 0.00 88 1029.9
20260901002543 63 86 0.0 1.0 0.00 0.00 0.00 88 1029.9
20260901002044 63 0 0.0 1.0 0.00 0.00 0.00 88 1030.1
20260901001559 63 0 0.0 2.0 0.00 0.00 0.00 88 1030.2
20260901001043 63 0 0.0 2.0 0.00 0.00 0.00 88 1030.4
20260901000546 63 0 0.0 2.0 0.00 0.00 0.00 87 1030.3
20260901000100 63 187 0.0 4.0 0.00 0.00 0.00 87 1030.5
20260831235543 63 199 0.0 4.0 0.00 0.00 0.00 87 1030.6
20260831235044 63 180 1.0 4.0 0.00 0.00 0.00 87 1030.7
20260831234556 63 0 1.0 5.0 0.00 0.00 0.00 87 1030.6
20260831234043 63 189 2.0 5.0 0.00 0.00 0.00 86 1030.7
20260831233542 63 126 1.0 5.0 0.00 0.00 0.00 86 1030.7
20260831233104 63 0 0.0 2.0 0.00 0.00 0.00 86 1030.7
20260831232544 63 141 0.0 4.0 0.00 0.00 0.00 86 1030.7
20260831232044 63 183 0.0 4.0 0.00 0.00 0.00 86 1030.6
20260831231556 63 172 1.0 4.0 0.00 0.00 0.00 86 1030.7
20260831231044 62 184 1.0 3.0 0.00 0.00 0.00 86 1030.6
20260831230544 63 183 0.0 4.0 0.00 0.00 0.00 85 1030.6
20260831230054 63 188 1.0 4.0 0.00 0.00 0.00 86 1030.6
20260831225543 63 185 1.0 4.0 0.00 0.00 0.00 86 1030.6
20260831225043 63 174 1.0 4.0 0.00 0.00 0.00 86 1030.6
20260831224601 63 181 2.0 4.0 0.00 0.00 0.00 85 1030.5
20260831224046 63 191 1.0 3.0 0.00 0.00 0.00 87 1030.4
20260831223544 62 209 0.0 2.0 0.00 0.00 0.00 90 1030.3
20260831223100 61 266 1.0 2.0 0.00 0.00 0.00 90 1030.4
20260831222545 60 0 0.0 0.0 0.00 0.00 0.00 93 1030.3
20260831222044 59 0 0.0 0.0 0.00 0.00 0.00 94 1030.4
20260831221624 59 0 0.0 0.0 0.00 0.00 0.00 95 1030.3
20260831221044 59 0 0.0 0.0 0.00 0.00 0.00 96 1030.5
20260831220544 58 0 0.0 0.0 0.00 0.00 0.00 96 1030.3
20260831220057 57 0 0.0 0.0 0.00 0.00 0.00 97 1030.4
20260831215544 57 0 0.0 0.0 0.00 0.00 0.00 97 1030.4
20260831215044 57 0 0.0 0.0 0.00 0.00 0.00 98 1030.4
20260831214554 56 0 0.0 0.0 0.00 0.00 0.00 97 1030.3
20260831214044 55 0 0.0 0.0 0.00 0.00 0.00 97 1030.2
20260831213544 55 0 0.0 0.0 0.00 0.00 0.00 97 1030.0
20260831213052 54 0 0.0 0.0 0.00 0.00 0.00 97 1030.0
20260831212543 54 0 0.0 0.0 0.00 0.00 0.00 97 1030.1
20260831212045 54 0 0.0 0.0 0.00 0.00 0.00 97 1030.0
20260831211556 54 0 0.0 0.0 0.00 0.00 0.00 97 1029.9
20260831211044 54 0 0.0 0.0 0.00 0.00 0.00 97 1029.9
20260831210543 54 0 0.0 0.0 0.00 0.00 0.00 97 1029.8
20260831210055 53 0 0.0 0.0 0.00 0.00 0.00 97 1029.8
20260831205550 53 0 0.0 0.0 0.00 0.00 0.00 97 1029.7
20260831205044 53 0 0.0 0.0 0.00 0.00 0.00 97 1029.5
20260831204556 53 0 0.0 0.0 0.00 0.00 0.00 97 1029.4
20260831204044 53 0 0.0 0.0 0.00 0.00 0.00 97 1029.3
20260831203542 53 0 0.0 0.0 0.00 0.00 0.00 97 1029.2
20260831203113 53 0 0.0 0.0 0.00 0.00 0.00 97 1029.2
20260831202543 52 0 0.0 0.0 0.00 0.00 0.00 97 1029.1
20260831202045 52 0 0.0 0.0 0.00 0.00 0.00 96 1029.0
20260831201605 52 0 0.0 0.0 0.00 0.00 0.00 97 1029.1
20260831201044 53 0 0.0 0.0 0.00 0.00 0.00 97 1028.9
20260831200544 52 0 0.0 0.0 0.00 0.00 0.00 97 1028.9
20260831200137 52 0 0.0 0.0 0.00 0.00 0.00 96 1028.8
20260831195546 52 0 0.0 0.0 0.00 0.00 0.00 96 1028.7
20260831195043 52 0 0.0 0.0 0.00 0.00 0.00 96 1028.7
20260831194559 53 0 0.0 0.0 0.00 0.00 0.00 97 1028.6
20260831194043 52 0 0.0 0.0 0.00 0.00 0.00 96 1028.6
20260831193544 53 0 0.0 0.0 0.00 0.00 0.00 97 1028.5
20260831193059 52 0 0.0 0.0 0.00 0.00 0.00 97 1028.5
20260831192545 52 0 0.0 0.0 0.00 0.00 0.00 97 1028.5
20260831192044 52 0 0.0 0.0 0.00 0.00 0.00 96 1028.3
20260831191600 52 0 0.0 0.0 0.00 0.00 0.00 96 1028.3
20260831191044 52 0 0.0 0.0 0.00 0.00 0.00 96 1028.2
20260831190541 52 0 0.0 0.0 0.00 0.00 0.00 96 1028.3
20260831190056 52 0 0.0 0.0 0.00 0.00 0.00 96 1028.2
20260831185545 52 0 0.0 0.0 0.00 0.00 0.00 96 1028.2
20260831185040 53 0 0.0 0.0 0.00 0.00 0.00 96 1028.1
20260831184556 52 0 0.0 0.0 0.00 0.00 0.00 96 1028.1
20260831184046 52 0 0.0 0.0 0.00 0.00 0.00 96 1028.2
20260831183543 52 0 0.0 0.0 0.00 0.00 0.00 96 1028.1
20260831183104 52 0 0.0 0.0 0.00 0.00 0.00 96 1028.0
20260831182545 52 0 0.0 0.0 0.00 0.00 0.00 96 1028.0
20260831182045 52 0 0.0 0.0 0.00 0.00 0.00 96 1027.9
20260831181602 53 0 0.0 0.0 0.00 0.00 0.00 96 1027.9
20260831181045 53 0 0.0 0.0 0.00 0.00 0.00 96 1027.9
20260831180543 53 0 0.0 0.0 0.00 0.00 0.00 96 1028.0
20260831180116 53 0 0.0 0.0 0.00 0.00 0.00 96 1027.9
20260831175544 53 0 0.0 0.0 0.00 0.00 0.00 96 1027.8
20260831175044 53 0 0.0 0.0 0.00 0.00 0.00 96 1027.9
20260831174604 54 0 0.0 0.0 0.00 0.00 0.00 97 1027.9
20260831174044 53 0 0.0 0.0 0.00 0.00 0.00 96 1028.0
20260831173544 53 0 0.0 0.0 0.00 0.00 0.00 96 1028.0
20260831173106 53 0 0.0 0.0 0.00 0.00 0.00 96 1028.1
20260831172544 53 0 0.0 0.0 0.00 0.00 0.00 96 1028.1
20260831172043 53 0 0.0 0.0 0.00 0.00 0.00 96 1028.1
20260831171605 53 0 0.0 0.0 0.00 0.00 0.00 96 1028.1
20260831171044 53 0 0.0 0.0 0.00 0.00 0.00 96 1028.1
20260831170544 53 0 0.0 0.0 0.00 0.00 0.00 96 1028.1
20260831170121 53 0 0.0 0.0 0.00 0.00 0.00 96 1028.2
20260831165544 53 0 0.0 0.0 0.00 0.00 0.00 96 1028.2
20260831165044 53 0 0.0 0.0 0.00 0.00 0.00 96 1028.3